Location: Unspecified
(22.6800°N, 112.2000°E)
Time: 08:33:02
(UTC+08:00)

Courier 1B Rocket - Pass Details

Date: 03 August 2021
Orbit: 920 x 1202 km, 28.3° (Epoch: 22 September)

Event Time Altitude Azimuth Distance (km) Brightness Sun altitude
Exits shadow 02:12:06 18° 66° (ENE) 2,168 7.2 -43.6°
Drops below altitude 10° 02:13:37 10° 70° (ENE) 2,680 7.7 -43.4°
Sets 02:16:14 0° 74° (ENE) 3,598 8.5 -43.1°
